^^
Station Historical Data
Daily Summary for February 4, 2017 Units:  English    Metric   Both
« Previous Day
Next Day »
Daily Weekly Monthly Yearly Custom
  High: Low: Average:
Temperature: 33.3 °F 18.9 °F 25.4 °F
Dew Point: 11.9 °F 5.1 °F 9.2 °F
Humidity: 64% 36% 50%
Wind Speed: 6.0mph 0.0mph 2mph
Wind Gust: 18.0mph - -
Wind- - SW
Pressure: 30.41 in 30.24 in -
Precipitation: 0.00 in    
Historical Graphs
 
 
Tabular Data for February 4, 2017
Time Temperature Dew Point Pressure Wind Wind Speed Wind Gust Humidity Rainfall Rate (Hourly) Conditions
00:00 22.9 °F 7.9 °F 30.24 in NE 3.0 mph 18.0 mph 52% 0.00 in BKN
00:10 22.6 °F 7.2 °F 30.25 in North 3.0 mph 15.0 mph 51% 0.00 in BKN
00:20 22.3 °F 6.4 °F 30.25 in SW 3.0 mph 14.0 mph 50% 0.00 in BKN
00:30 22.1 °F 6.7 °F 30.25 in North 1.0 mph 17.0 mph 51% 0.00 in BKN
00:40 21.9 °F 6.5 °F 30.25 in NNW 3.0 mph 12.0 mph 51% 0.00 in BKN
00:50 21.7 °F 6.4 °F 30.26 in NNE 3.0 mph 13.0 mph 51% 0.00 in BKN
01:00 21.5 °F 6.6 °F 30.26 in NNW 2.0 mph 12.0 mph 52% 0.00 in BKN
01:10 21.4 °F 6.5 °F 30.25 in NE 2.0 mph 15.0 mph 52% 0.00 in CLR
01:20 21.3 °F 6.3 °F 30.26 in North 1.0 mph 12.0 mph 52% 0.00 in CLR
01:30 21.1 °F 6.2 °F 30.26 in NW 3.0 mph 8.0 mph 52% 0.00 in CLR
01:40 20.9 °F 6.0 °F 30.27 in West 1.0 mph 10.0 mph 52% 0.00 in CLR
01:50 20.8 °F 5.5 °F 30.27 in North 5.0 mph 14.0 mph 51% 0.00 in CLR
02:00 20.6 °F 5.3 °F 30.28 in ENE 1.0 mph 12.0 mph 51% 0.00 in CLR
02:10 20.4 °F 5.1 °F 30.28 in WNW 2.0 mph 12.0 mph 51% 0.00 in CLR
02:20 20.3 °F 5.5 °F 30.28 in NNE 1.0 mph 9.0 mph 52% 0.00 in CLR
02:30 20.1 °F 5.7 °F 30.29 in Calm   7.0 mph 53% 0.00 in CLR
02:40 20.1 °F 5.7 °F 30.29 in NW 2.0 mph 8.0 mph 53% 0.00 in CLR
02:50 20.0 °F 6.0 °F 30.29 in NNW 1.0 mph 5.0 mph 54% 0.00 in CLR
03:00 19.9 °F 5.9 °F 30.29 in North 3.0 mph 12.0 mph 54% 0.00 in CLR
03:10 19.8 °F 5.8 °F 30.29 in NW 3.0 mph 12.0 mph 54% 0.00 in CLR
03:20 19.7 °F 6.5 °F 30.29 in NE 3.0 mph 8.0 mph 56% 0.00 in CLR
03:30 19.7 °F 6.5 °F 30.29 in NNE 2.0 mph 6.0 mph 56% 0.00 in CLR
03:40 19.6 °F 6.4 °F 30.30 in NW 1.0 mph 15.0 mph 56% 0.00 in CLR
03:50 19.5 °F 6.3 °F 30.30 in Calm   6.0 mph 56% 0.00 in CLR
04:00 19.5 °F 6.3 °F 30.30 in NW 1.0 mph 8.0 mph 56% 0.00 in CLR
04:10 19.4 °F 6.6 °F 30.31 in NW 2.0 mph 9.0 mph 57% 0.00 in CLR
04:20 19.4 °F 6.6 °F 30.31 in NNE 2.0 mph 7.0 mph 57% 0.00 in CLR
04:30 19.2 °F 7.2 °F 30.32 in Calm   8.0 mph 59% 0.00 in CLR
04:40 19.1 °F 7.1 °F 30.32 in WSW 1.0 mph 5.0 mph 59% 0.00 in CLR
04:50 19.2 °F 7.2 °F 30.32 in West 1.0 mph 5.0 mph 59% 0.00 in CLR
05:00 19.0 °F 7.0 °F 30.32 in Calm   5.0 mph 59% 0.00 in CLR
05:10 18.9 °F 7.3 °F 30.33 in Calm   5.0 mph 60% 0.00 in CLR
05:20 18.9 °F 7.3 °F 30.33 in West 1.0 mph 6.0 mph 60% 0.00 in CLR
05:30 18.9 °F 7.3 °F 30.33 in WNW 1.0 mph 7.0 mph 60% 0.00 in CLR
05:40 19.0 °F 7.7 °F 30.33 in WSW 2.0 mph 8.0 mph 61% 0.00 in CLR
05:50 19.0 °F 7.7 °F 30.34 in WSW 1.0 mph 7.0 mph 61% 0.00 in CLR
06:00 19.0 °F 7.7 °F 30.35 in WSW 2.0 mph 6.0 mph 61% 0.00 in CLR
06:10 19.0 °F 8.1 °F 30.35 in WNW 1.0 mph 5.0 mph 62% 0.00 in CLR
06:20 18.9 °F 8.0 °F 30.35 in South 1.0 mph 7.0 mph 62% 0.00 in CLR
06:30 19.0 °F 8.5 °F 30.36 in West 1.0 mph 5.0 mph 63% 0.00 in CLR
06:40 18.9 °F 8.4 °F 30.37 in NW 1.0 mph 5.0 mph 63% 0.00 in CLR
06:50 18.9 °F 8.4 °F 30.37 in NNW 1.0 mph 6.0 mph 63% 0.00 in CLR
07:00 18.9 °F 8.4 °F 30.37 in West 1.0 mph 8.0 mph 63% 0.00 in CLR
07:10 19.0 °F 8.5 °F 30.37 in NW 1.0 mph 7.0 mph 63% 0.00 in CLR
07:20 19.0 °F 8.5 °F 30.36 in Calm   5.0 mph 63% 0.00 in CLR
07:30 19.0 °F 8.5 °F 30.37 in Calm   7.0 mph 63% 0.00 in CLR
07:40 19.0 °F 8.8 °F 30.38 in East 1.0 mph 8.0 mph 64% 0.00 in CLR
07:50 19.1 °F 8.6 °F 30.38 in Calm   8.0 mph 63% 0.00 in CLR
08:00 19.3 °F 9.1 °F 30.39 in NW 1.0 mph 6.0 mph 64% 0.00 in CLR
08:10 19.5 °F 8.9 °F 30.39 in NW 1.0 mph 6.0 mph 63% 0.00 in CLR
08:20 19.8 °F 8.9 °F 30.40 in ENE 1.0 mph 10.0 mph 62% 0.00 in CLR
08:30 20.1 °F 8.8 °F 30.40 in ENE 1.0 mph 6.0 mph 61% 0.00 in CLR
08:40 20.4 °F 9.1 °F 30.40 in NE 1.0 mph 6.0 mph 61% 0.00 in CLR
08:50 20.8 °F 9.5 °F 30.40 in SW 1.0 mph 7.0 mph 61% 0.00 in CLR
09:00 21.4 °F 9.6 °F 30.40 in North 1.0 mph 5.0 mph 60% 0.00 in CLR
09:10 21.9 °F 10.2 °F 30.40 in Calm   6.0 mph 60% 0.00 in CLR
09:20 22.6 °F 10.0 °F 30.41 in North 2.0 mph 6.0 mph 58% 0.00 in CLR
09:30 23.1 °F 10.1 °F 30.41 in West 2.0 mph 8.0 mph 57% 0.00 in CLR
09:40 23.6 °F 9.8 °F 30.41 in WNW 3.0 mph 7.0 mph 55% 0.00 in CLR
09:50 23.9 °F 10.1 °F 30.41 in Calm   6.0 mph 55% 0.00 in CLR
10:00 24.4 °F 10.1 °F 30.41 in NNE 1.0 mph 7.0 mph 54% 0.00 in CLR
10:10 24.8 °F 10.5 °F 30.41 in SW 1.0 mph 10.0 mph 54% 0.00 in FEW
10:20 25.6 °F 10.8 °F 30.41 in West 1.0 mph 10.0 mph 53% 0.00 in FEW
10:30 25.5 °F 10.3 °F 30.41 in WNW 2.0 mph 8.0 mph 52% 0.00 in FEW
10:40 25.7 °F 10.5 °F 30.41 in WSW 1.0 mph 12.0 mph 52% 0.00 in FEW
10:50 25.7 °F 10.5 °F 30.40 in SW 1.0 mph 10.0 mph 52% 0.00 in FEW
11:00 26.3 °F 10.6 °F 30.40 in WSW 2.0 mph 11.0 mph 51% 0.00 in FEW
11:10 27.1 °F 11.4 °F 30.40 in West 1.0 mph 6.0 mph 51% 0.00 in FEW
11:20 26.7 °F 10.5 °F 30.39 in SW 3.0 mph 10.0 mph 50% 0.00 in FEW
11:30 27.4 °F 10.7 °F 30.38 in WSW 1.0 mph 5.0 mph 49% 0.00 in FEW
11:40 27.6 °F 10.5 °F 30.38 in SW 3.0 mph 9.0 mph 48% 0.00 in FEW
11:50 27.8 °F 10.6 °F 30.38 in WSW 5.0 mph 11.0 mph 48% 0.00 in FEW
12:00 28.1 °F 11.4 °F 30.37 in WSW 3.0 mph 10.0 mph 49% 0.00 in FEW
12:10 28.3 °F 11.0 °F 30.37 in West 2.0 mph 8.0 mph 48% 0.00 in FEW
12:20 28.5 °F 10.8 °F 30.36 in West 1.0 mph 8.0 mph 47% 0.00 in FEW
12:30 28.4 °F 10.7 °F 30.36 in SW 5.0 mph 14.0 mph 47% 0.00 in FEW
12:40 29.3 °F 11.5 °F 30.35 in SW 2.0 mph 9.0 mph 47% 0.00 in FEW
12:50 29.0 °F 10.8 °F 30.35 in West 3.0 mph 10.0 mph 46% 0.00 in FEW
13:10 30.0 °F 10.7 °F 30.33 in WSW 2.0 mph 10.0 mph 44% 0.00 in FEW
13:20 30.0 °F 11.2 °F 30.33 in SSW 1.0 mph 10.0 mph 45% 0.00 in FEW
13:30 30.4 °F 11.1 °F 30.32 in WSW 2.0 mph 13.0 mph 44% 0.00 in FEW
13:40 30.4 °F 10.5 °F 30.32 in SW 2.0 mph 11.0 mph 43% 0.00 in FEW
13:50 30.8 °F 10.9 °F 30.32 in SSW 3.0 mph 9.0 mph 43% 0.00 in FEW
14:00 31.0 °F 10.5 °F 30.31 in SW 3.0 mph 11.0 mph 42% 0.00 in FEW
14:10 31.2 °F 10.8 °F 30.31 in SSW 3.0 mph 11.0 mph 42% 0.00 in CLR
14:20 32.1 °F 10.5 °F 30.31 in SW 3.0 mph 9.0 mph 40% 0.00 in CLR
14:30 31.8 °F 9.6 °F 30.31 in WSW 3.0 mph 13.0 mph 39% 0.00 in CLR
14:50 32.4 °F 9.0 °F 30.31 in SW 3.0 mph 10.0 mph 37% 0.00 in CLR
15:00 32.4 °F 9.6 °F 30.31 in SW 5.0 mph 16.0 mph 38% 0.00 in CLR
15:10 33.1 °F 9.6 °F 30.31 in SW 6.0 mph 10.0 mph 37% 0.00 in CLR
15:20 32.8 °F 9.3 °F 30.31 in West 3.0 mph 10.0 mph 37% 0.00 in CLR
15:30 33.0 °F 9.5 °F 30.30 in SW 6.0 mph 14.0 mph 37% 0.00 in CLR
15:40 33.2 °F 9.1 °F 30.31 in SW 5.0 mph 12.0 mph 36% 0.00 in CLR
15:50 33.3 °F 9.2 °F 30.31 in SW 3.0 mph 14.0 mph 36% 0.00 in CLR
16:00 33.0 °F 8.9 °F 30.30 in WSW 3.0 mph 8.0 mph 36% 0.00 in CLR
16:10 33.2 °F 9.7 °F 30.31 in SW 3.0 mph 12.0 mph 37% 0.00 in CLR
16:20 32.7 °F 9.3 °F 30.31 in SW 5.0 mph 12.0 mph 37% 0.00 in CLR
16:50 31.8 °F 9.0 °F 30.31 in SW 5.0 mph 14.0 mph 38% 0.00 in CLR
17:00 31.5 °F 9.3 °F 30.31 in SW 2.0 mph 10.0 mph 39% 0.00 in CLR
17:10 31.2 °F 9.7 °F 30.31 in SW 2.0 mph 8.0 mph 40% 0.00 in CLR
17:20 31.0 °F 9.4 °F 30.31 in SW 2.0 mph 8.0 mph 40% 0.00 in CLR
17:30 30.7 °F 9.2 °F 30.31 in SSW 2.0 mph 7.0 mph 40% 0.00 in CLR
17:40 30.5 °F 9.6 °F 30.31 in WSW 2.0 mph 8.0 mph 41% 0.00 in CLR
17:50 30.4 °F 9.5 °F 30.31 in SW 1.0 mph 7.0 mph 41% 0.00 in CLR
18:00 30.3 °F 9.4 °F 30.31 in WSW 2.0 mph 6.0 mph 41% 0.00 in CLR
18:10 30.2 °F 9.8 °F 30.31 in WSW 1.0 mph 6.0 mph 42% 0.00 in CLR
18:20 30.1 °F 9.7 °F 30.31 in SW 3.0 mph 7.0 mph 42% 0.00 in CLR
18:30 29.9 °F 10.1 °F 30.31 in Calm   7.0 mph 43% 0.00 in CLR
18:40 29.6 °F 10.3 °F 30.32 in SW 2.0 mph 6.0 mph 44% 0.00 in CLR
18:50 29.5 °F 10.7 °F 30.32 in SW 1.0 mph 6.0 mph 45% 0.00 in CLR
19:00 29.5 °F 10.2 °F 30.31 in SW 2.0 mph 12.0 mph 44% 0.00 in CLR
19:10 29.5 °F 10.8 °F 30.31 in SW 2.0 mph 10.0 mph 45% 0.00 in CLR
19:20 29.4 °F 11.1 °F 30.31 in SW 5.0 mph 9.0 mph 46% 0.00 in CLR
19:30 29.4 °F 10.6 °F 30.31 in SW 5.0 mph 12.0 mph 45% 0.00 in CLR
19:40 29.5 °F 10.7 °F 30.31 in SW 3.0 mph 12.0 mph 45% 0.00 in CLR
19:50 29.5 °F 10.7 °F 30.32 in SW 5.0 mph 12.0 mph 45% 0.00 in CLR
20:00 29.4 °F 10.6 °F 30.32 in SW 5.0 mph 12.0 mph 45% 0.00 in CLR
20:10 29.2 °F 11.0 °F 30.31 in WSW 3.0 mph 12.0 mph 46% 0.00 in CLR
20:20 29.2 °F 11.0 °F 30.31 in SW 3.0 mph 10.0 mph 46% 0.00 in CLR
20:30 29.1 °F 10.9 °F 30.31 in SW 3.0 mph 9.0 mph 46% 0.00 in CLR
20:40 29.0 °F 11.3 °F 30.31 in SW 3.0 mph 10.0 mph 47% 0.00 in CLR
20:50 28.8 °F 11.1 °F 30.32 in SW 3.0 mph 8.0 mph 47% 0.00 in CLR
21:00 28.7 °F 11.0 °F 30.32 in WSW 1.0 mph 8.0 mph 47% 0.00 in CLR
21:10 28.3 °F 11.6 °F 30.32 in SW 1.0 mph 5.0 mph 49% 0.00 in CLR
21:20 28.3 °F 11.6 °F 30.33 in SW 1.0 mph 6.0 mph 49% 0.00 in CLR
21:30 28.5 °F 11.3 °F 30.33 in SW 3.0 mph 8.0 mph 48% 0.00 in CLR
21:40 28.3 °F 11.1 °F 30.33 in SW 1.0 mph 9.0 mph 48% 0.00 in CLR
21:50 28.2 °F 11.0 °F 30.32 in SW 1.0 mph 5.0 mph 48% 0.00 in CLR
22:00 28.0 °F 10.8 °F 30.31 in WSW 2.0 mph 6.0 mph 48% 0.00 in CLR
22:10 28.0 °F 11.3 °F 30.31 in SW 1.0 mph 4.0 mph 49% 0.00 in CLR
22:20 28.0 °F 11.3 °F 30.30 in SW 1.0 mph 7.0 mph 49% 0.00 in CLR
22:30 28.0 °F 11.3 °F 30.30 in WSW 1.0 mph 6.0 mph 49% 0.00 in CLR
22:40 28.0 °F 11.3 °F 30.30 in SW 2.0 mph 6.0 mph 49% 0.00 in CLR
22:50 28.0 °F 11.3 °F 30.30 in WSW 1.0 mph 7.0 mph 49% 0.00 in CLR
23:00 28.0 °F 11.7 °F 30.30 in SW 1.0 mph 4.0 mph 50% 0.00 in CLR
23:10 28.0 °F 11.3 °F 30.30 in WSW 1.0 mph 7.0 mph 49% 0.00 in CLR
23:20 27.9 °F 11.6 °F 30.29 in Calm   2.0 mph 50% 0.00 in CLR
23:30 27.8 °F 11.6 °F 30.28 in Calm   3.0 mph 50% 0.00 in CLR
23:40 27.7 °F 11.9 °F 30.28 in SSW 1.0 mph 3.0 mph 51% 0.00 in CLR
23:50 27.7 °F 11.9 °F 30.28 in SW 1.0 mph 5.0 mph 51% 0.00 in CLR
TarryTown NY Weather
Compliments of Weather Underground - 1.75 mb